Starlink 2164

operational
NORAD ID: 47750 Int'l Des: 2021-017 Owner: SPXS Country: US Constellation: starlink
LEOCIRCULARSTARLINK_TYPE

Starlink 2164について

説明を読み込み中...

リアルタイム位置

3D地球を読み込み中...

次回通過

高度履歴

Altitude vs Time

uPlot chart will show altitude changes over time

軌道要素

1 47750U 21017AE 25308.58987758 .00010746 00000-0 73868-3 0 9992
2 47750 53.0552 43.2100 0001215 97.3177 262.7950 15.06426928259019
Epoch: Nov 4, 2025 • Age: 5 hours

現在のステータス

高度 547.9 km
速度 7.59 km/s
衛星直下点 26.69°N, 93.83°E
打ち上げ日 Mar 4, 2021
運用期間 4.6 years
タイプ internet

技術仕様

分類 Payload
質量 260.00 kg
乾燥質量 248.00 kg
総質量 260.00 kg
長さ 0.20 m
直径 2.80 m
スパン 9.00 m
形状 Box + pan
製造者 SPXS
バスタイプ Starlink
フェーズステータス In Orbit
所有者/国 SPXS/US

大規模コンステレーション

Loading constellations...